User: anonymous   Login
Location: Bambrugge
(50.9212°N, 3.9299°E)
Time: 07:33:53
(UTC+00:00)
Language:

SL-16 R/B - Orbit

View from above orbital plane
View from above orbital plane
View from above satellite
View from above satellite

Ground track
Ground track

The orbit data is extracted from the following two-line orbital elements,

1 31793U 07029B   24202.13378669  .00000241  00000-0  15038-3 0  9991
2 31793  70.9765 348.3391 0002050 255.2916 277.7627 14.14638654880946
Epoch (UTC): 20 July 2024 03:12:39
Eccentricity: 0.0002050
inclination: 70.9765°
perigee height: 842 km
apogee height: 845 km
right ascension of ascending node: 348.3391°
argument of perigee: 255.2916°
revolutions per day: 14.14638654
mean anomaly at epoch: 277.7627°
orbit number at epoch: 88094

The dashed part of the orbit path shows where the satellite is in the earth's shadow,  

DLR